Location: St Paul
(33.4390°N, 83.7350°W)
Time: 09:02:14
(UTC-05:00)

ATLAS 2AS CENTAUR R/B - Pass Details

Date: 06 October 2017
Orbit: 909 x 1303 km, 63.7° (Epoch: 15 December)

Event Time Altitude Azimuth Distance (km) Brightness Sun altitude
Rises 19:34:58 0° 333° (NNW) 4,263 6.2 -5.5°
Reaches altitude 10° 19:37:56 10° 337° (NNW) 3,262 5.5 -6.2°
Maximum altitude 19:45:43 59° 56° (NE) 1,369 3.0 -7.8°
Drops below altitude 10° 19:52:51 10° 135° (SE) 2,999 4.6 -9.3°
Sets 19:55:27 0° 139° (SE) 3,898 5.3 -9.8°
